Lexington Weather

Lexington, Massachusetts, USA

44°F
5/12/2021 5:13am 
  • Lexington Conditions: Clear
  • Temperature: 44.4°F / 6.9°C 
  • Dew Point: 33.4°FIncreased 0.9°Fsince last hour.
  • Relative Humidity: 65%Increased 2.0% since last hour.
  • Wind: Calm, 10-min avg: Calm, gust: 3 mph
  • Barometer: 29.94 inRising 0.02  inHg/hr Rising Slowly
  • Visibility: 10 miles
  • Rain Today: 0.00 in
  •   

Regional Weather Roundup
for Boston / Norton, MA

        
000
ASUS41 KBOX 051005
RWRBOX

REGIONAL WEATHER ROUNDUP
NATIONAL WEATHER SERVICE BOSTON/NORTON MA
600 AM EDT WED MAY 05 2021

NOTE:  "FAIR" INDICATES FEW OR NO CLOUDS BELOW 12,000 FEET WITH NO 
SIGNIFICANT WEATHER AND/OR OBSTRUCTIONS TO VISIBILITY.

MAZALL-051100-
EASTERN MASSACHUSETTS
  
CITY           SKY/WX    TMP DP  RH WIND       PRES   REMARKS
BOSTON         NOT AVBL                                               
BEVERLY        LGT RAIN  47  46  97 CALM      29.80R FOG              
LAWRENCE       CLOUDY    47  46  97 CALM      29.81S                  
BEDFORD        LGT RAIN  47  45  93 E3        29.78R FOG              
BLUE HILL        N/A     45  45 100 CALM      29.77R                  
NORWOOD        LGT RAIN  49  46  90 CALM      29.79R FOG              
MARSHFIELD     CLOUDY    48  48 100 SE6       29.78S                  
PLYMOUTH       CLOUDY    47  46  97 E7        29.77S                  
TAUNTON        CLOUDY    48  47  96 S3        29.78F                  
NEW BEDFORD    CLOUDY    49  47  93 E5        29.77F                  
$$

MAZALL-051100-
CAPE COD AND THE ISLANDS
  
CITY           SKY/WX    TMP DP  RH WIND       PRES   REMARKS
FALMOUTH       CLOUDY    48  48 100 VRB5      29.79R                  
HYANNIS        CLOUDY    48  46  93 E6        29.79R                  
CHATHAM        LGT RAIN  47  44  90 S5        29.82R                  
PROVINCETOWN   CLOUDY    46  45  96 S6        29.82R                  
NANTUCKET      LGT RAIN  47  46  97 SE13      29.79R                  
MARTHAS VNYRD  CLOUDY    48  47  96 SE5       29.78F                  
$$
 
MAZALL-051100-
CENTRAL AND WESTERN MASSACHUSETTS
  
CITY           SKY/WX    TMP DP  RH WIND       PRES   REMARKS
WORCESTER      FOG       47  45  93 E5        29.76F VSB 1/4          
FITCHBURG      LGT RAIN  45  45 100 CALM      29.79R FOG              
ORANGE         LGT RAIN  46  45  96 CALM      29.78S FOG              
SPRINGFIELD    CLOUDY    48  48 100 E3        29.75F FOG              
WESTFIELD      LGT RAIN  49  48  97 CALM      29.76S FOG              
NORTH ADAMS    CLOUDY    52  50  93 E7        29.73R                  
PITTSFIELD     LGT RAIN  49  48  97 E5        29.72S                  
$$
 
RIZALL-051100-
RHODE ISLAND
  
CITY           SKY/WX    TMP DP  RH WIND       PRES   REMARKS
PROVIDENCE     CLOUDY    50  48  93 SE3       29.78S                  
NEWPORT        CLOUDY    48  47  96 SE5       29.77F FOG              
BLOCK ISLAND   CLOUDY    47  46  97 SE6       29.78S                  
SMITHFIELD     LGT RAIN  47  47 100 SE5       29.78R FOG              
WESTERLY       CLOUDY    46  46 100 E5        29.77F FOG              
$$
 
CTZALL-051100-
CONNECTICUT
  
CITY           SKY/WX    TMP DP  RH WIND       PRES   REMARKS
BRADLEY INTL   DRZL/FOG  51  49  92 CALM      29.76S VSB 1            
HARTFORD       CLOUDY    51  49  92 CALM      29.76S FOG              
BRIDGEPORT     CLOUDY    50  49  96 E7        29.76R FOG              
DANBURY        CLOUDY    51  48  89 SE3       29.75F FOG              
GROTON         CLOUDY    48  47  96 SE6       29.77S FOG              
NEW HAVEN      CLOUDY    51  50  96 E7        29.76S FOG              
CHESTER        FOG       48  48 100 E3        29.76S VSB 1            
MERIDEN        CLOUDY    49  47  93 CALM      29.76S FOG              
WILLIMANTIC    CLOUDY    50  48  93 CALM      29.77S FOG              
OXFORD         LGT RAIN  48  48 100 SE6       29.76R VSB 1            
$$

MEZ002-015-021-024-NHZ003-005-008-011-012-014-VTZ005-008-051100-
NORTHERN NEW ENGLAND
  
CITY           SKY/WX    TMP DP  RH WIND       PRES   REMARKS
PORTLAND ME    LGT RAIN  46  44  93 E5        29.80S                  
BANGOR ME      CLOUDY    50  39  66 E3        29.84R                  
CONCORD NH     LGT RAIN  44  42  93 CALM      29.80R                  
MANCHESTER NH  LGT RAIN  46  43  89 NW5       29.78S FOG              
NASHUA NH      LGT RAIN  45  45 100 NW3       29.80S FOG              
PORTSMOUTH NH  HVY RAIN  46  45  96 CALM      29.80R FOG              
JAFFREY NH     LGT RAIN  44  43  96 CALM      29.78R                  
KEENE NH       LGT RAIN  45  45 100 CALM      29.78R                  
BURLINGTON VT  LGT RAIN  53  50  89 NE3       29.68R                  
MT. WASHINGTON LGT RAIN  41  39  93 S15         N/A                   
$$

NYZ052-076-051100-
EASTERN NEW YORK
  
CITY           SKY/WX    TMP DP  RH WIND       PRES   REMARKS
ALBANY         CLOUDY    51  51 100 S10G20    29.70S                  
NEW YORK CITY  DRZL/FOG  52  50  93 NE7       29.73S VSB 1            
$$
 
ANZALL-051100-
MARINE OBSERVATIONS
  
STATION/POSITION TIME  TEMP    WIND        PRES    VSBY  WAVE
                       AIR SEA DIR/SP/G                  HT/PER
                 (UTC) (F)     (DEG/KT/KT) (MB)    (MI)  (FT/S)
BOSTON BUOY      0940   46 47  110/  8/ 10 1008.4R
BUZZARDS BAY     0900          110/  2/  2 1009.6R
NANTUCKET SOUND  0940      51                N/A
MASS BAY-STELLWA NOT AVBL
ISLE OF SHOALS   0900   45      60/  9/  9 1008.0F
S OF BLOCK IS    0926      48                N/A           4/ 7
$$

......................KEY.........................
  SKY/WX - SKY CONDITION/PRESENT WEATHER
  TMP    - TEMPERATURE IN FAHRENHEIT
  DWPT   - DEWPOINT IN FAHRENHEIT
  RH     - RELATIVE HUMIDITY IN PERCENT
  WIND   - DIRECTION AND SPEED IN MPH
  PRES   - MEAN SEA LEVEL PRESSURE IN INCHES OF HG
  WCI    - WIND CHILL INDEX
  VSB    - VISIBILITY IN MILES
  HX     - HEAT INDEX
  TC     - TEMPERATURE IN CELSIUS
  VRB    - VARIABLE WIND DIRECTION
  N/A    - NOT AVAILABLE
  
      

Other recent Regional Weather Roundups

Wed May 12, 5:04am

Wed May 12, 4:04am

Wed May 12, 3:04am

Wed May 12, 2:04am

Wed May 12, 1:04am

Wed May 12, 12:05am

Tue May 11, 11:05pm

Tue May 11, 10:04pm

Tue May 11, 9:05pm

Tue May 11, 8:05pm

Tue May 11, 7:04pm

Tue May 11, 6:04pm

Tue May 11, 5:04pm

Tue May 11, 4:05pm

Tue May 11, 3:04pm

Tue May 11, 2:05pm

Tue May 11, 1:04pm

Tue May 11, 12:05pm

Tue May 11, 11:05am

Tue May 11, 10:04am

Tue May 11, 9:04am

Tue May 11, 8:04am

Tue May 11, 7:05am

Tue May 11, 6:04am

Tue May 11, 5:04am

Tue May 11, 4:04am

Tue May 11, 3:04am

Tue May 11, 2:04am

Tue May 11, 1:04am

Tue May 11, 12:04am

Mon May 10, 11:04pm

Mon May 10, 10:04pm

Mon May 10, 9:05pm

Mon May 10, 8:04pm

Mon May 10, 7:05pm

Mon May 10, 6:04pm

Mon May 10, 5:04pm

Mon May 10, 4:04pm

Mon May 10, 3:04pm

Mon May 10, 2:04pm

Mon May 10, 1:04pm

Mon May 10, 12:04pm

Mon May 10, 11:05am

Mon May 10, 10:04am

Mon May 10, 9:04am

Mon May 10, 8:04am

Mon May 10, 7:04am

Mon May 10, 6:04am

Mon May 10, 5:05am

Mon May 10, 4:04am

Mon May 10, 3:04am

Mon May 10, 2:04am

Mon May 10, 1:04am

Mon May 10, 12:04am

Sun May 9, 11:04pm

Sun May 9, 10:04pm

Sun May 9, 9:04pm

Sun May 9, 8:04pm

Sun May 9, 7:05pm

Sun May 9, 6:04pm

Sun May 9, 5:04pm

Sun May 9, 4:04pm

Sun May 9, 3:04pm

Sun May 9, 2:04pm

Sun May 9, 1:05pm

Sun May 9, 12:04pm

Sun May 9, 11:05am

Sun May 9, 10:04am

Sun May 9, 9:04am

Sun May 9, 8:04am

Sun May 9, 7:04am

Sun May 9, 6:04am

Sun May 9, 5:04am

Sun May 9, 4:04am

Sun May 9, 3:04am

Sun May 9, 2:04am

Sun May 9, 1:05am

Sun May 9, 12:04am

Sat May 8, 11:05pm

Sat May 8, 10:04pm

Sat May 8, 9:05pm

Sat May 8, 8:04pm

Sat May 8, 7:04pm

Sat May 8, 6:04pm

Sat May 8, 5:05pm

Sat May 8, 4:04pm

Sat May 8, 3:05pm

Sat May 8, 2:05pm

Sat May 8, 1:05pm

Sat May 8, 12:04pm

Sat May 8, 11:05am

Sat May 8, 10:04am

Sat May 8, 9:04am

Sat May 8, 8:04am

Sat May 8, 7:04am

Sat May 8, 6:04am

Sat May 8, 5:04am

Sat May 8, 4:04am

Sat May 8, 3:04am

Sat May 8, 2:04am

Sat May 8, 1:05am

Sat May 8, 12:04am

Fri May 7, 11:04pm

Fri May 7, 10:05pm

Fri May 7, 9:04pm

Fri May 7, 8:04pm

Fri May 7, 7:05pm

Fri May 7, 6:04pm

Fri May 7, 5:05pm

Fri May 7, 4:04pm

Fri May 7, 3:04pm

Fri May 7, 2:05pm

Fri May 7, 1:04pm

Fri May 7, 12:04pm

Fri May 7, 11:05am

Fri May 7, 10:04am

Fri May 7, 9:04am

Fri May 7, 8:05am

Fri May 7, 7:04am

Fri May 7, 6:04am

Fri May 7, 5:04am

Fri May 7, 4:04am

Fri May 7, 3:04am

Fri May 7, 2:05am

Fri May 7, 1:04am

Fri May 7, 12:05am

Thu May 6, 11:04pm

Thu May 6, 10:04pm

Thu May 6, 9:05pm

Thu May 6, 8:04pm

Thu May 6, 7:04pm

Thu May 6, 6:04pm

Thu May 6, 5:05pm

Thu May 6, 4:04pm

Thu May 6, 3:04pm

Thu May 6, 2:05pm

Thu May 6, 1:04pm

Thu May 6, 12:04pm

Thu May 6, 11:04am

Thu May 6, 10:04am

Thu May 6, 9:04am

Thu May 6, 8:04am

Thu May 6, 7:04am

Thu May 6, 6:04am

Thu May 6, 5:04am

Thu May 6, 4:04am

Thu May 6, 3:04am

Thu May 6, 2:05am

Thu May 6, 1:04am

Thu May 6, 12:05am

Wed May 5, 11:04pm

Wed May 5, 10:04pm

Wed May 5, 9:05pm

Wed May 5, 8:04pm

Wed May 5, 7:05pm

Wed May 5, 6:04pm

Wed May 5, 5:04pm

Wed May 5, 4:04pm

Wed May 5, 3:04pm

Wed May 5, 2:05pm

Wed May 5, 1:05pm

Wed May 5, 12:04pm

Wed May 5, 11:05am

Wed May 5, 10:04am

Wed May 5, 9:04am

Wed May 5, 8:04am

Wed May 5, 7:04am

Meta data:

ID: 6d3044ae-a7c2-48ab-aed7-9deaba759ad9
Link: https://api.weather.gov/products/6d3044ae-a7c2-48ab-aed7-9deaba759ad9